Location: Philipsburg
(46.3359°N, 113.2993°W)
Time: 14:21:08
(UTC+00:00)

Envisat - Pass Details

Date: 23 January 2022
Orbit: 764 x 765 km, 98.2° (Epoch: 17 May)

Event Time Altitude Azimuth Distance (km) Brightness Sun altitude
Rises 11:11:32 0° 29° (NNE) 3,241 6.7 -40.1°
Reaches altitude 10° 11:14:42 10° 49° (NE) 2,309 6.0 -39.6°
Maximum altitude 11:17:56 17° 89° (E) 1,873 5.6 -39.1°
Drops below altitude 10° 11:21:10 10° 129° (SE) 2,298 5.8 -38.5°
Sets 11:24:17 0° 150° (SSE) 3,219 6.4 -38.0°
